Satellite: FENGYUN 1C
Catalog number: 25730
Epoch time:      103046.18025444
Element set:     767 
Inclination:       98.6343 deg
RA of node:        70.7076 deg
Eccentricity:    0.0014665
Arg of perigee:    15.8621 deg
Mean anomaly:     344.3007 deg
Mean motion:   14.11733479 rev/day
Decay rate:    2.4999E-007 rev/day^2
Epoch rev:           19415
Checksum:              313

Satellite: ASTRA 1H
Catalog number: 25785
Epoch time:      103041.00000000
Element set:     371 
Inclination:        0.0122 deg
RA of node:       319.8851 deg
Eccentricity:    0.0002995
Arg of perigee:    65.1991 deg
Mean anomaly:     133.7806 deg
Mean motion:    1.00273184 rev/day
Decay rate:    1.2900E-006 rev/day^2
Epoch rev:            1341
Checksum:              233

Satellite: TERRA
Catalog number: 25994
Epoch time:      103046.15399739
Element set:     698 
Inclination:       98.1998 deg
RA of node:       122.4286 deg
Eccentricity:    0.0000869
Arg of perigee:    73.7768 deg
Mean anomaly:     286.3526 deg
Mean motion:   14.57128871 rev/day
Decay rate:    6.1699E-006 rev/day^2
Epoch rev:           16817
Checksum:              387

Satellite: JAWSAT
Catalog number: 26061
Epoch time:      103045.89094808
Element set:     765 
Inclination:      100.2085 deg
RA of node:       102.2783 deg
Eccentricity:    0.0034683
Arg of perigee:   290.0719 deg
Mean anomaly:      69.6730 deg
Mean motion:   14.37821503 rev/day
Decay rate:    6.5399E-006 rev/day^2
Epoch rev:           16000
Checksum:              301

Satellite: OPAL
Catalog number: 26063
Epoch time:      103045.72169970
Element set:     721 
Inclination:      100.2135 deg
RA of node:        99.6042 deg
Eccentricity:    0.0036929
Arg of perigee:   298.1585 deg
Mean anomaly:      61.5866 deg
Mean motion:   14.35479903 rev/day
Decay rate:    1.8099E-006 rev/day^2
Epoch rev:           15983
Checksum:              333

Satellite: ASUSAT
Catalog number: 26065
Epoch time:      103045.53924730
Element set:     733 
Inclination:      100.2113 deg
RA of node:        99.5358 deg
Eccentricity:    0.0037024
Arg of perigee:   299.6343 deg
Mean anomaly:      60.1152 deg
Mean motion:   14.35507441 rev/day
Decay rate:    2.1799E-006 rev/day^2
Epoch rev:           15980
Checksum:              290

Satellite: GOES 11
Catalog number: 26352
Epoch time:      103045.21939275
Element set:     22 
Inclination:        0.1298 deg
RA of node:       104.0860 deg
Eccentricity:    0.0003623
Arg of perigee:   194.1199 deg
Mean anomaly:     171.2949 deg
Mean motion:    1.00265080 rev/day
Decay rate:   -3.0999E-007 rev/day^2
Epoch rev:            1019
Checksum:              274

Satellite: EUTELSAT W4
Catalog number: 26369
Epoch time:      103042.91619900
Element set:     352 
Inclination:        0.0295 deg
RA of node:         8.5955 deg
Eccentricity:    0.0003064
Arg of perigee:   313.2309 deg
Mean anomaly:     185.6602 deg
Mean motion:    1.00275437 rev/day
Decay rate:    1.6400E-006 rev/day^2
Epoch rev:             998
Checksum:              275

Satellite: FENGYUN 2B
Catalog number: 26382
Epoch time:      103044.70694568
Element set:     794 
Inclination:        0.5813 deg
RA of node:       287.6003 deg
Eccentricity:    0.0001562
Arg of perigee:   229.0482 deg
Mean anomaly:     345.4905 deg
Mean motion:    1.00279090 rev/day
Decay rate:   -3.2400E-006 rev/day^2
Epoch rev:             966
Checksum:              287

Satellite: EUTELSAT W1
Catalog number: 26487
Epoch time:      103045.23369793
Element set:     355 
Inclination:        0.0241 deg
RA of node:       276.4338 deg
Eccentricity:    0.0003902
Arg of perigee:    58.5322 deg
Mean anomaly:     262.9198 deg
Mean motion:    1.00273247 rev/day
Decay rate:    7.2000E-007 rev/day^2
Epoch rev:             897
Checksum:              286

Satellite: ASTRA 2B
Catalog number: 26494
Epoch time:      103041.00000000
Element set:     254 
Inclination:        0.0178 deg
RA of node:       354.5658 deg
Eccentricity:    0.0005000
Arg of perigee:   302.8402 deg
Mean anomaly:     230.4186 deg
Mean motion:    1.00276704 rev/day
Decay rate:    1.5900E-006 rev/day^2
Epoch rev:             883
Checksum:              222

Satellite: NOAA 16
Catalog number: 26536
Epoch time:      103045.75513293
Element set:     207 
Inclination:       98.9013 deg
RA of node:       354.0667 deg
Eccentricity:    0.0010274
Arg of perigee:   320.9503 deg
Mean anomaly:      39.0898 deg
Mean motion:   14.11904039 rev/day
Decay rate:    4.6700E-006 rev/day^2
Epoch rev:           12361
Checksum:              295

Satellite: SAUDISAT 1A
Catalog number: 26545
Epoch time:      103044.27158738
Element set:     411 
Inclination:       64.5596 deg
RA of node:        48.2041 deg
Eccentricity:    0.0052420
Arg of perigee:   239.6318 deg
Mean anomaly:     119.9553 deg
Mean motion:   14.78969627 rev/day
Decay rate:    1.6629E-005 rev/day^2
Epoch rev:           12843
Checksum:              327

Satellite: UNISAT
Catalog number: 26547
Epoch time:      103044.66622100
Element set:     430 
Inclination:       64.5575 deg
RA of node:        49.2439 deg
Eccentricity:    0.0059558
Arg of perigee:   241.8025 deg
Mean anomaly:     117.7061 deg
Mean motion:   14.79730551 rev/day
Decay rate:    2.7390E-005 rev/day^2
Epoch rev:           12846
Checksum:              304

Satellite: TIUNGSAT 1
Catalog number: 26548
Epoch time:      103045.99014050
Element set:     415 
Inclination:       64.5573 deg
RA of node:        35.8507 deg
Eccentricity:    0.0045778
Arg of perigee:   238.3933 deg
Mean anomaly:     121.2704 deg
Mean motion:   14.81262202 rev/day
Decay rate:    2.0150E-005 rev/day^2
Epoch rev:           12883
Checksum:              285

Satellite: SAUDISAT 1B
Catalog number: 26549
Epoch time:      103046.06319610
Element set:     692 
Inclination:       64.5512 deg
RA of node:        46.7916 deg
Eccentricity:    0.0056878
Arg of perigee:   239.4164 deg
Mean anomaly:     120.1323 deg
Mean motion:   14.77912316 rev/day
Decay rate:    1.4809E-005 rev/day^2
Epoch rev:           12862
Checksum:              310

Satellite: AMSAT OSCAR 40
Catalog number: 26609
Epoch time:      103042.26455231
Element set:     310 
Inclination:        8.0482 deg
RA of node:        65.4048 deg
Eccentricity:    0.7940113
Arg of perigee:   142.6388 deg
Mean anomaly:     315.2305 deg
Mean motion:    1.25596326 rev/day
Decay rate:   -6.7000E-007 rev/day^2
Epoch rev:            1049
Checksum:              271

Satellite: GOES 12
Catalog number: 26871
Epoch time:      103044.63803907
Element set:     818 
Inclination:        0.3394 deg
RA of node:       276.4190 deg
Eccentricity:    0.0003237
Arg of perigee:     5.2648 deg
Mean anomaly:     355.1756 deg
Mean motion:    1.00363016 rev/day
Decay rate:   -1.5199E-006 rev/day^2
Epoch rev:             578
Checksum:              292

Satellite: PCSAT
Catalog number: 26931
Epoch time:      103045.53610388
Element set:     401 
Inclination:       67.0475 deg
RA of node:       265.9968 deg
Eccentricity:    0.0005011
Arg of perigee:   264.6676 deg
Mean anomaly:      95.3853 deg
Mean motion:   14.29113574 rev/day
Decay rate:    2.2500E-006 rev/day^2
Epoch rev:            7177
Checksum:              306

Satellite: SAPPHIRE
Catalog number: 26932
Epoch time:      103045.58462881
Element set:     396 
Inclination:       67.0548 deg
RA of node:       265.5782 deg
Eccentricity:    0.0005089
Arg of perigee:   240.7364 deg
Mean anomaly:     119.3226 deg
Mean motion:   14.29293214 rev/day
Decay rate:    1.3400E-006 rev/day^2
Epoch rev:            7180
Checksum:              308

Satellite: ENVISAT
Catalog number: 27386
Epoch time:      103046.12189694
Element set:     940 
Inclination:       98.5453 deg
RA of node:       114.7180 deg
Eccentricity:    0.0000879
Arg of perigee:   103.1675 deg
Mean anomaly:     256.9526 deg
Mean motion:   14.32248395 rev/day
Decay rate:   -4.3099E-006 rev/day^2
Epoch rev:            5025
Checksum:              326

Satellite: IDEFIX/ARIANE 
Catalog number: 27422
Epoch time:      103045.88874547
Element set:     233 
Inclination:       98.6955 deg
RA of node:       125.1078 deg
Eccentricity:    0.0012928
Arg of perigee:   157.3250 deg
Mean anomaly:     202.8502 deg
Mean motion:   14.27968186 rev/day
Decay rate:    2.7700E-006 rev/day^2
Epoch rev:            4093
Checksum:              322

Satellite: FENGYUN 1D
Catalog number: 27431
Epoch time:      103046.18649677
Element set:     215 
Inclination:       98.7703 deg
RA of node:        95.2598 deg
Eccentricity:    0.0015929
Arg of perigee:   132.1832 deg
Mean anomaly:     228.0694 deg
Mean motion:   14.09177797 rev/day
Decay rate:    1.9999E-008 rev/day^2
Epoch rev:            3889
Checksum:              369

Satellite: NOAA 17
Catalog number: 27453
Epoch time:      103045.91006288
Element set:     304 
Inclination:       98.7594 deg
RA of node:       117.1417 deg
Eccentricity:    0.0012145
Arg of perigee:    11.1150 deg
Mean anomaly:     349.0294 deg
Mean motion:   14.23291510 rev/day
Decay rate:    3.0100E-006 rev/day^2
Epoch rev:            3344
Checksum:              259

Satellite: HOT BIRD 6
Catalog number: 27499
Epoch time:      103044.99704955
Element set:     67 
Inclination:        0.0348 deg
RA of node:       333.6449 deg
Eccentricity:    0.0009014
Arg of perigee:    37.5008 deg
Mean anomaly:     144.3150 deg
Mean motion:    1.00272840 rev/day
Decay rate:    9.0999E-007 rev/day^2
Epoch rev:             178
Checksum:              410

